Time,TemperatureF,DewpointF,PressureIn,WindDirection,WindDirectionDegrees,WindSpeedMPH,WindSpeedGustMPH,Humidity,HourlyPrecipIn,Conditions,Clouds,dailyrainin,SolarRadiationWatts/m^2,SoftwareType,DateUTC
2013-05-26 00:01:00,61.0,54.0,-100.00,NW,316,7.0,8.0,79,0.00,,,0.00,0.000000,,2013-05-26 06:01:00,
2013-05-26 00:12:00,61.0,54.0,-100.00,NW,316,7.0,8.0,79,0.00,,,0.00,0.000000,,2013-05-26 06:12:00,
2013-05-26 00:32:00,59.0,55.0,-100.00,NNW,334,4.0,8.0,86,0.00,,,0.00,0.000000,,2013-05-26 06:32:00,
2013-05-26 00:42:00,59.0,55.0,-100.00,NNW,334,4.0,8.0,86,0.00,,,0.00,0.000000,,2013-05-26 06:42:00,
2013-05-26 00:52:00,59.0,55.0,-100.00,NNW,334,4.0,8.0,86,0.00,,,0.00,0.000000,,2013-05-26 06:52:00,
2013-05-26 01:01:00,59.0,55.0,-100.00,NNW,334,4.0,8.0,86,0.00,,,0.00,0.000000,,2013-05-26 07:01:00,
2013-05-26 01:11:00,59.0,55.0,-100.00,NNW,334,4.0,8.0,86,0.00,,,0.00,0.000000,,2013-05-26 07:11:00,
2013-05-26 01:32:00,59.0,55.0,-100.00,NNW,329,6.0,9.0,87,0.00,,,0.00,0.000000,,2013-05-26 07:32:00,
2013-05-26 01:42:00,59.0,55.0,-100.00,NNW,329,6.0,9.0,87,0.00,,,0.00,0.000000,,2013-05-26 07:42:00,
2013-05-26 01:52:00,59.0,55.0,-100.00,NNW,329,6.0,9.0,87,0.00,,,0.00,0.000000,,2013-05-26 07:52:00,
2013-05-26 02:01:00,59.0,55.0,-100.00,NNW,329,6.0,9.0,87,0.00,,,0.00,0.000000,,2013-05-26 08:01:00,
2013-05-26 02:12:00,59.0,55.0,-100.00,NNW,329,6.0,9.0,87,0.00,,,0.00,0.000000,,2013-05-26 08:12:00,
2013-05-26 02:32:00,57.0,54.0,-100.00,NW,318,8.0,9.0,91,0.00,,,0.00,0.000000,,2013-05-26 08:32:00,
2013-05-26 02:42:00,57.0,54.0,-100.00,NW,318,8.0,9.0,91,0.00,,,0.00,0.000000,,2013-05-26 08:42:00,
2013-05-26 02:53:00,57.0,54.0,-100.00,NW,318,8.0,9.0,91,0.00,,,0.00,0.000000,,2013-05-26 08:53:00,
2013-05-26 03:01:00,57.0,54.0,-100.00,NW,318,8.0,9.0,91,0.00,,,0.00,0.000000,,2013-05-26 09:01:00,
2013-05-26 03:11:00,57.0,54.0,-100.00,NW,318,8.0,9.0,91,0.00,,,0.00,0.000000,,2013-05-26 09:11:00,
2013-05-26 03:34:00,58.0,55.0,-100.00,NNW,327,9.0,12.0,90,0.00,,,0.00,0.000000,,2013-05-26 09:34:00,
2013-05-26 03:43:00,58.0,55.0,-100.00,NNW,327,9.0,12.0,90,0.00,,,0.00,0.000000,,2013-05-26 09:43:00,
2013-05-26 03:53:00,58.0,55.0,-100.00,NNW,327,9.0,12.0,90,0.00,,,0.00,0.000000,,2013-05-26 09:53:00,
2013-05-26 04:02:00,58.0,55.0,-100.00,NNW,327,9.0,12.0,90,0.00,,,0.00,0.000000,,2013-05-26 10:02:00,
2013-05-26 04:12:00,58.0,55.0,-100.00,NNW,327,9.0,12.0,90,0.00,,,0.00,0.000000,,2013-05-26 10:12:00,
2013-05-26 04:33:00,57.0,55.0,-100.00,North,1,4.0,10.0,94,0.00,,,0.00,0.000000,,2013-05-26 10:33:00,
2013-05-26 04:42:00,57.0,55.0,-100.00,North,1,4.0,10.0,94,0.00,,,0.00,0.000000,,2013-05-26 10:42:00,
2013-05-26 04:52:00,57.0,55.0,-100.00,North,1,4.0,10.0,94,0.00,,,0.00,0.000000,,2013-05-26 10:52:00,
2013-05-26 05:03:00,57.0,55.0,-100.00,North,1,4.0,10.0,94,0.00,,,0.00,0.000000,,2013-05-26 11:03:00,
2013-05-26 05:11:00,57.0,55.0,-100.00,North,1,4.0,10.0,94,0.00,,,0.00,0.000000,,2013-05-26 11:11:00,
2013-05-26 05:32:00,59.0,58.0,-100.00,NNW,338,6.0,10.0,98,0.00,,,0.00,0.000000,,2013-05-26 11:32:00,
2013-05-26 05:42:00,59.0,58.0,-100.00,NNW,338,6.0,10.0,98,0.00,,,0.00,0.000000,,2013-05-26 11:42:00,
2013-05-26 05:52:00,59.0,58.0,-100.00,NNW,338,6.0,10.0,98,0.00,,,0.00,0.000000,,2013-05-26 11:52:00,
2013-05-26 06:02:00,59.0,58.0,-100.00,NNW,338,6.0,10.0,98,0.00,,,0.00,0.000000,,2013-05-26 12:02:00,
2013-05-26 06:12:00,59.0,58.0,-100.00,NNW,338,6.0,10.0,98,0.00,,,0.00,0.000000,,2013-05-26 12:12:00,
2013-05-26 06:32:00,57.0,57.0,-100.00,NNE,23,11.0,20.0,100,0.00,,,0.00,4.000000,,2013-05-26 12:32:00,
2013-05-26 06:42:00,57.0,57.0,-100.00,NNE,23,11.0,20.0,100,0.00,,,0.00,4.000000,,2013-05-26 12:42:00,
2013-05-26 06:52:00,57.0,57.0,-100.00,NNE,23,11.0,20.0,100,0.00,,,0.00,4.000000,,2013-05-26 12:52:00,
2013-05-26 07:02:00,57.0,57.0,-100.00,NNE,23,11.0,20.0,100,0.00,,,0.00,4.000000,,2013-05-26 13:02:00,
2013-05-26 07:11:00,57.0,57.0,-100.00,NNE,23,11.0,20.0,100,0.00,,,0.00,4.000000,,2013-05-26 13:11:00,
2013-05-26 07:32:00,55.0,55.0,-100.00,NNE,20,12.0,22.0,100,0.00,,,0.00,21.000000,,2013-05-26 13:32:00,
2013-05-26 07:42:00,55.0,55.0,-100.00,NNE,20,12.0,22.0,100,0.00,,,0.00,21.000000,,2013-05-26 13:42:00,
2013-05-26 07:52:00,55.0,55.0,-100.00,NNE,20,12.0,22.0,100,0.00,,,0.00,21.000000,,2013-05-26 13:52:00,
2013-05-26 08:02:00,55.0,55.0,-100.00,NNE,20,12.0,22.0,100,0.00,,,0.00,21.000000,,2013-05-26 14:02:00,
2013-05-26 08:11:00,55.0,55.0,-100.00,NNE,20,12.0,22.0,100,0.00,,,0.00,21.000000,,2013-05-26 14:11:00,
2013-05-26 08:32:00,53.0,52.0,-100.00,NNE,14,12.0,28.0,97,0.01,,,0.01,67.000000,,2013-05-26 14:32:00,
2013-05-26 08:42:00,53.0,52.0,-100.00,NNE,14,12.0,28.0,97,0.01,,,0.01,67.000000,,2013-05-26 14:42:00,
2013-05-26 08:52:00,53.0,52.0,-100.00,NNE,14,12.0,28.0,97,0.01,,,0.01,67.000000,,2013-05-26 14:52:00,
2013-05-26 09:01:00,53.0,52.0,-100.00,NNE,14,12.0,28.0,97,0.01,,,0.01,67.000000,,2013-05-26 15:01:00,
2013-05-26 09:12:00,53.0,52.0,-100.00,NNE,14,12.0,28.0,97,0.01,,,0.01,67.000000,,2013-05-26 15:12:00,
2013-05-26 09:33:00,53.0,52.0,-100.00,North,5,9.0,20.0,96,0.00,,,0.01,102.000000,,2013-05-26 15:33:00,
2013-05-26 09:43:00,53.0,52.0,-100.00,North,5,9.0,20.0,96,0.00,,,0.01,102.000000,,2013-05-26 15:43:00,
2013-05-26 09:53:00,53.0,52.0,-100.00,North,5,9.0,20.0,96,0.00,,,0.01,102.000000,,2013-05-26 15:53:00,
2013-05-26 10:03:00,53.0,52.0,-100.00,North,5,9.0,20.0,96,0.00,,,0.01,102.000000,,2013-05-26 16:03:00,
2013-05-26 10:12:00,53.0,52.0,-100.00,North,5,9.0,20.0,96,0.00,,,0.01,102.000000,,2013-05-26 16:12:00,
2013-05-26 10:33:00,54.0,52.0,-100.00,North,6,9.0,15.0,93,0.00,,,0.01,201.000000,,2013-05-26 16:33:00,
2013-05-26 10:42:00,54.0,52.0,-100.00,North,6,9.0,15.0,93,0.00,,,0.01,201.000000,,2013-05-26 16:42:00,
2013-05-26 10:53:00,54.0,52.0,-100.00,North,6,9.0,15.0,93,0.00,,,0.01,201.000000,,2013-05-26 16:53:00,
2013-05-26 11:02:00,54.0,52.0,-100.00,North,6,9.0,15.0,93,0.00,,,0.01,201.000000,,2013-05-26 17:02:00,
2013-05-26 11:11:00,54.0,52.0,-100.00,North,6,9.0,15.0,93,0.00,,,0.01,201.000000,,2013-05-26 17:11:00,
2013-05-26 11:32:00,59.0,54.0,-100.00,North,6,5.0,10.0,85,0.00,,,0.01,391.000000,,2013-05-26 17:32:00,
2013-05-26 11:42:00,59.0,54.0,-100.00,North,6,5.0,10.0,85,0.00,,,0.01,391.000000,,2013-05-26 17:42:00,
2013-05-26 11:52:00,59.0,54.0,-100.00,North,6,5.0,10.0,85,0.00,,,0.01,391.000000,,2013-05-26 17:52:00,
2013-05-26 12:01:00,59.0,54.0,-100.00,North,6,5.0,10.0,85,0.00,,,0.01,391.000000,,2013-05-26 18:01:00,
2013-05-26 12:12:00,59.0,54.0,-100.00,North,6,5.0,10.0,85,0.00,,,0.01,391.000000,,2013-05-26 18:12:00,
2013-05-26 12:32:00,62.0,55.0,-100.00,NE,52,3.0,8.0,79,0.00,,,0.01,485.000000,,2013-05-26 18:32:00,
2013-05-26 12:42:00,62.0,55.0,-100.00,NE,52,3.0,8.0,79,0.00,,,0.01,485.000000,,2013-05-26 18:42:00,
2013-05-26 12:52:00,62.0,55.0,-100.00,NE,52,3.0,8.0,79,0.00,,,0.01,485.000000,,2013-05-26 18:52:00,
2013-05-26 13:01:00,62.0,55.0,-100.00,NE,52,3.0,8.0,79,0.00,,,0.01,485.000000,,2013-05-26 19:01:00,
2013-05-26 13:11:00,62.0,55.0,-100.00,NE,52,3.0,8.0,79,0.00,,,0.01,485.000000,,2013-05-26 19:11:00,
2013-05-26 13:32:00,64.0,57.0,-100.00,ENE,75,4.0,8.0,77,0.00,,,0.01,607.000000,,2013-05-26 19:32:00,
2013-05-26 13:42:00,64.0,57.0,-100.00,ENE,75,4.0,8.0,77,0.00,,,0.01,607.000000,,2013-05-26 19:42:00,
2013-05-26 13:52:00,64.0,57.0,-100.00,ENE,75,4.0,8.0,77,0.00,,,0.01,607.000000,,2013-05-26 19:52:00,
2013-05-26 14:02:00,64.0,57.0,-100.00,ENE,75,4.0,8.0,77,0.00,,,0.01,607.000000,,2013-05-26 20:02:00,
2013-05-26 14:11:00,64.0,57.0,-100.00,ENE,75,4.0,8.0,77,0.00,,,0.01,607.000000,,2013-05-26 20:11:00,
2013-05-26 14:32:00,68.0,57.0,-100.00,SE,136,6.0,11.0,68,0.00,,,0.01,855.000000,,2013-05-26 20:32:00,
2013-05-26 14:42:00,68.0,57.0,-100.00,SE,136,6.0,11.0,68,0.00,,,0.01,855.000000,,2013-05-26 20:42:00,
2013-05-26 14:52:00,68.0,57.0,-100.00,SE,136,6.0,11.0,68,0.00,,,0.01,855.000000,,2013-05-26 20:52:00,
2013-05-26 15:02:00,68.0,57.0,-100.00,SE,136,6.0,11.0,68,0.00,,,0.01,855.000000,,2013-05-26 21:02:00,
2013-05-26 15:11:00,68.0,57.0,-100.00,SE,136,6.0,11.0,68,0.00,,,0.01,855.000000,,2013-05-26 21:11:00,
2013-05-26 15:43:00,70.0,58.0,-100.00,SE,124,8.0,15.0,65,0.00,,,0.01,842.000000,,2013-05-26 21:43:00,
2013-05-26 15:53:00,70.0,58.0,-100.00,SE,124,8.0,15.0,65,0.00,,,0.01,842.000000,,2013-05-26 21:53:00,
2013-05-26 16:03:00,70.0,58.0,-100.00,SE,124,8.0,15.0,65,0.00,,,0.01,842.000000,,2013-05-26 22:03:00,
2013-05-26 16:12:00,70.0,58.0,-100.00,SE,124,8.0,15.0,65,0.00,,,0.01,842.000000,,2013-05-26 22:12:00,
2013-05-26 16:33:00,71.0,56.0,-100.00,ENE,68,5.0,11.0,60,0.00,,,0.01,714.000000,,2013-05-26 22:33:00,
2013-05-26 16:42:00,71.0,56.0,-100.00,ENE,68,5.0,11.0,60,0.00,,,0.01,714.000000,,2013-05-26 22:42:00,
2013-05-26 16:53:00,71.0,56.0,-100.00,ENE,68,5.0,11.0,60,0.00,,,0.01,714.000000,,2013-05-26 22:53:00,
2013-05-26 17:02:00,71.0,56.0,-100.00,ENE,68,5.0,11.0,60,0.00,,,0.01,714.000000,,2013-05-26 23:02:00,
2013-05-26 17:12:00,71.0,56.0,-100.00,ENE,68,5.0,11.0,60,0.00,,,0.01,714.000000,,2013-05-26 23:12:00,
2013-05-26 17:32:00,69.0,56.0,-100.00,ESE,102,9.0,15.0,64,0.00,,,0.01,543.000000,,2013-05-26 23:32:00,
2013-05-26 17:43:00,69.0,56.0,-100.00,ESE,102,9.0,15.0,64,0.00,,,0.01,543.000000,,2013-05-26 23:43:00,
2013-05-26 17:52:00,69.0,56.0,-100.00,ESE,102,9.0,15.0,64,0.00,,,0.01,543.000000,,2013-05-26 23:52:00,
2013-05-26 18:02:00,69.0,56.0,-100.00,ESE,102,9.0,15.0,64,0.00,,,0.01,543.000000,,2013-05-27 00:02:00,
2013-05-26 18:11:00,69.0,56.0,-100.00,ESE,102,9.0,15.0,64,0.00,,,0.01,543.000000,,2013-05-27 00:11:00,
2013-05-26 19:32:00,61.0,57.0,-100.00,ENE,71,8.0,15.0,88,-99.99,,,0.01,32.000000,,2013-05-27 01:32:00,
2013-05-26 19:42:00,61.0,57.0,-100.00,ENE,71,8.0,15.0,88,-99.99,,,0.01,32.000000,,2013-05-27 01:42:00,
2013-05-26 19:52:00,61.0,57.0,-100.00,ENE,71,8.0,15.0,88,-99.99,,,0.01,32.000000,,2013-05-27 01:52:00,
2013-05-26 20:02:00,61.0,57.0,-100.00,ENE,71,8.0,15.0,88,-99.99,,,0.01,32.000000,,2013-05-27 02:02:00,
2013-05-26 20:11:00,61.0,57.0,-100.00,ENE,71,8.0,15.0,88,-99.99,,,0.01,32.000000,,2013-05-27 02:11:00,
2013-05-26 20:32:00,59.0,57.0,-100.00,NE,56,4.0,11.0,93,0.00,,,0.01,6.000000,,2013-05-27 02:32:00,
2013-05-26 20:43:00,59.0,57.0,-100.00,NE,56,4.0,11.0,93,0.00,,,0.01,6.000000,,2013-05-27 02:43:00,
2013-05-26 20:52:00,59.0,57.0,-100.00,NE,56,4.0,11.0,93,0.00,,,0.01,6.000000,,2013-05-27 02:52:00,
2013-05-26 21:02:00,59.0,57.0,-100.00,NE,56,4.0,11.0,93,0.00,,,0.01,6.000000,,2013-05-27 03:02:00,
2013-05-26 21:11:00,59.0,57.0,-100.00,NE,56,4.0,11.0,93,0.00,,,0.01,6.000000,,2013-05-27 03:11:00,
2013-05-26 21:33:00,59.0,58.0,-100.00,NE,55,4.0,8.0,96,0.00,,,0.01,0.000000,,2013-05-27 03:33:00,
2013-05-26 21:43:00,59.0,58.0,-100.00,NE,55,4.0,8.0,96,0.00,,,0.01,0.000000,,2013-05-27 03:43:00,
2013-05-26 21:53:00,59.0,58.0,-100.00,NE,55,4.0,8.0,96,0.00,,,0.01,0.000000,,2013-05-27 03:53:00,
2013-05-26 22:02:00,59.0,58.0,-100.00,NE,55,4.0,8.0,96,0.00,,,0.01,0.000000,,2013-05-27 04:02:00,
2013-05-26 22:12:00,59.0,58.0,-100.00,NE,55,4.0,8.0,96,0.00,,,0.01,0.000000,,2013-05-27 04:12:00,
2013-05-26 22:33:00,58.0,58.0,-100.00,ENE,62,5.0,8.0,99,0.00,,,0.01,0.000000,,2013-05-27 04:33:00,
2013-05-26 22:43:00,58.0,58.0,-100.00,ENE,62,5.0,8.0,99,0.00,,,0.01,0.000000,,2013-05-27 04:43:00,
2013-05-26 22:52:00,58.0,58.0,-100.00,ENE,62,5.0,8.0,99,0.00,,,0.01,0.000000,,2013-05-27 04:52:00,
2013-05-26 23:02:00,58.0,58.0,-100.00,ENE,62,5.0,8.0,99,0.00,,,0.01,0.000000,,2013-05-27 05:02:00,
2013-05-26 23:12:00,58.0,58.0,-100.00,ENE,62,5.0,8.0,99,0.00,,,0.01,0.000000,,2013-05-27 05:12:00,
2013-05-26 23:32:00,57.0,57.0,-100.00,NE,48,5.0,9.0,100,0.00,,,0.01,0.000000,,2013-05-27 05:32:00,
2013-05-26 23:42:00,57.0,57.0,-100.00,NE,48,5.0,9.0,100,0.00,,,0.01,0.000000,,2013-05-27 05:42:00,
2013-05-26 23:52:00,57.0,57.0,-100.00,NE,48,5.0,9.0,100,0.00,,,0.01,0.000000,,2013-05-27 05:52:00,